When you browse on this site, cookies collect data to enhance your experience and personalize the content and advertising you see.
Visit our Privacy Policy to learn more. By continuing to use the site, you agree to this use of cookies and data.
  • In Latvia
  • List of Countries
  • For 7 days
  • Water Temperature
  • Satellite Maps
  • Weather Map
  • Weather Widgets
  • user-avatar
    Login

    Hourly Weather Gold Coast

    Today, 21 June, Friday

    Time Temperature Precipitation Wind Pressure Humidity
    00:00 +16°C° 0.1 mm 2 mps 760 mmHg 91%
    01:00 +15°C° 0.1 mm 2 mps 760 mmHg 91%
    02:00 +15°C° 0 mm 2 mps 760 mmHg 93%
    03:00 +14°C° 0 mm 2 mps 760 mmHg 94%
    04:00 +14°C° 0 mm 2 mps 759 mmHg 96%
    05:00 +13°C° 0 mm 2 mps 759 mmHg 96%
    06:00 +13°C° 0 mm 2 mps 760 mmHg 95%
    07:00 +13°C° 0 mm 2 mps 760 mmHg 95%
    08:00 +16°C° 0 mm 2 mps 760 mmHg 84%
    09:00 +19°C° 0 mm 1 mps 760 mmHg 72%
    10:00 +22°C° 0 mm 1 mps 760 mmHg 61%
    11:00 +22°C° 0 mm 1 mps 759 mmHg 56%
    12:00 +23°C° 0 mm 2 mps 759 mmHg 51%
    13:00 +23°C° 0 mm 2 mps 758 mmHg 47%
    14:00 +22°C° 0.1 mm 3 mps 758 mmHg 51%
    15:00 +21°C° 0.1 mm 3 mps 758 mmHg 56%
    16:00 +20°C° 0.1 mm 4 mps 758 mmHg 60%
    17:00 +17°C° 0.1 mm 5 mps 759 mmHg 69%
    18:00 +15°C° 0.1 mm 5 mps 760 mmHg 78%
    19:00 +13°C° 0.1 mm 6 mps 760 mmHg 87%
    20:00 +11°C° 0 mm 6 mps 760 mmHg 86%
    21:00 +11°C° 0 mm 6 mps 761 mmHg 85%
    22:00 +11°C° 0 mm 6 mps 761 mmHg 85%
    23:00 +10°C° 0 mm 6 mps 761 mmHg 86%

    Tomorrow, 22 June, Saturday

    Time Temperature Precipitation Wind Pressure Humidity
    00:00 +10°C° 0 mm 6 mps 761 mmHg 87%
    01:00 +9°C° 0 mm 6 mps 761 mmHg 89%
    02:00 +9°C° 0 mm 6 mps 761 mmHg 86%
    03:00 +8°C° 0 mm 6 mps 761 mmHg 84%
    04:00 +8°C° 0 mm 6 mps 761 mmHg 82%
    05:00 +7°C° 0 mm 6 mps 761 mmHg 81%
    06:00 +7°C° 0 mm 5 mps 762 mmHg 80%
    07:00 +6°C° 0 mm 5 mps 762 mmHg 79%
    08:00 +9°C° 0 mm 5 mps 762 mmHg 71%
    09:00 +12°C° 0 mm 5 mps 762 mmHg 62%
    10:00 +15°C° 0 mm 5 mps 762 mmHg 54%
    11:00 +16°C° 0 mm 5 mps 762 mmHg 52%
    12:00 +17°C° 0 mm 5 mps 761 mmHg 50%
    13:00 +19°C° 0 mm 5 mps 760 mmHg 49%
    14:00 +17°C° 0 mm 5 mps 760 mmHg 53%
    15:00 +17°C° 0 mm 5 mps 761 mmHg 56%
    16:00 +16°C° 0 mm 6 mps 761 mmHg 60%
    17:00 +14°C° 0 mm 5 mps 761 mmHg 68%
    18:00 +13°C° 0 mm 5 mps 762 mmHg 77%
    19:00 +10°C° 0 mm 5 mps 762 mmHg 85%
    20:00 +9°C° 0 mm 5 mps 762 mmHg 86%
    21:00 +9°C° 0 mm 5 mps 762 mmHg 88%
    22:00 +9°C° 0 mm 5 mps 763 mmHg 90%
    23:00 +8°C° 0.1 mm 5 mps 762 mmHg 90%

    Day after tomorrow, 23 June, Sunday

    Time Temperature Precipitation Wind Pressure Humidity
    00:00 +8°C° 0.1 mm 5 mps 762 mmHg 91%
    01:00 +8°C° 0.1 mm 5 mps 762 mmHg 91%
    02:00 +8°C° 0 mm 5 mps 762 mmHg 91%
    03:00 +7°C° 0 mm 5 mps 762 mmHg 91%
    04:00 +7°C° 0 mm 5 mps 762 mmHg 91%
    05:00 +7°C° 0 mm 5 mps 762 mmHg 91%
    06:00 +7°C° 0 mm 5 mps 762 mmHg 90%
    07:00 +7°C° 0 mm 5 mps 763 mmHg 90%
    08:00 +10°C° 0 mm 5 mps 763 mmHg 80%
    09:00 +13°C° 0 mm 6 mps 763 mmHg 70%
    10:00 +16°C° 0 mm 6 mps 763 mmHg 61%
    11:00 +17°C° 0 mm 6 mps 762 mmHg 58%
    12:00 +17°C° 0 mm 6 mps 762 mmHg 55%
    13:00 +19°C° 0 mm 6 mps 761 mmHg 53%
    14:00 +17°C° 0.1 mm 6 mps 761 mmHg 57%
    15:00 +17°C° 0.1 mm 6 mps 761 mmHg 60%
    16:00 +16°C° 0.1 mm 6 mps 762 mmHg 64%
    17:00 +14°C° 0.1 mm 5 mps 762 mmHg 72%
    18:00 +13°C° 0.1 mm 5 mps 762 mmHg 80%
    19:00 +10°C° 0.1 mm 5 mps 763 mmHg 88%
    20:00 +10°C° 0 mm 5 mps 763 mmHg 89%
    21:00 +10°C° 0 mm 5 mps 763 mmHg 90%
    22:00 +10°C° 0 mm 5 mps 764 mmHg 92%
    23:00 +10°C° 0 mm 5 mps 763 mmHg 91%

    24 June, Monday

    Time Temperature Precipitation Wind Pressure Humidity
    00:00 +10°C° 0 mm 5 mps 763 mmHg 91%
    01:00 +10°C° 0 mm 5 mps 763 mmHg 91%
    02:00 +10°C° 0.1 mm 5 mps 763 mmHg 91%
    03:00 +10°C° 0.1 mm 5 mps 763 mmHg 91%
    04:00 +10°C° 0.1 mm 5 mps 763 mmHg 91%
    05:00 +9°C° 0.2 mm 5 mps 763 mmHg 91%
    06:00 +9°C° 0.2 mm 5 mps 764 mmHg 92%
    07:00 +9°C° 0.2 mm 5 mps 764 mmHg 92%
    08:00 +12°C° 0.1 mm 5 mps 765 mmHg 84%
    09:00 +14°C° 0.1 mm 6 mps 765 mmHg 75%
    10:00 +16°C° 0.1 mm 6 mps 765 mmHg 66%
    11:00 +17°C° 0.2 mm 6 mps 765 mmHg 64%
    12:00 +17°C° 0.2 mm 6 mps 764 mmHg 61%
    13:00 +19°C° 0.2 mm 6 mps 764 mmHg 59%
    14:00 +17°C° 0.3 mm 6 mps 764 mmHg 63%
    15:00 +16°C° 0.3 mm 6 mps 764 mmHg 67%
    16:00 +16°C° 0.3 mm 6 mps 764 mmHg 71%
    17:00 +15°C° 0.3 mm 6 mps 765 mmHg 77%
    18:00 +14°C° 0.3 mm 6 mps 765 mmHg 82%
    19:00 +13°C° 0.3 mm 5 mps 766 mmHg 88%
    20:00 +12°C° 0.2 mm 5 mps 766 mmHg 89%
    21:00 +12°C° 0.2 mm 5 mps 766 mmHg 91%
    22:00 +12°C° 0.2 mm 5 mps 766 mmHg 93%
    23:00 +12°C° 0.1 mm 5 mps 766 mmHg 93%

    25 June, Tuesday

    Time Temperature Precipitation Wind Pressure Humidity
    00:00 +10°C° 0.1 mm 5 mps 766 mmHg 94%
    01:00 +10°C° 0.1 mm 5 mps 766 mmHg 95%
    02:00 +10°C° 0.2 mm 5 mps 765 mmHg 95%
    03:00 +10°C° 0.2 mm 5 mps 765 mmHg 96%
    04:00 +10°C° 0.2 mm 5 mps 765 mmHg 96%
    05:00 +10°C° 0.1 mm 5 mps 766 mmHg 96%
    06:00 +9°C° 0.1 mm 5 mps 766 mmHg 96%
    07:00 +9°C° 0.1 mm 5 mps 766 mmHg 97%
    08:00 +13°C° 0 mm 5 mps 767 mmHg 86%
    09:00 +15°C° 0 mm 5 mps 767 mmHg 76%
    10:00 +17°C° 0 mm 5 mps 767 mmHg 66%
    11:00 +19°C° 0.1 mm 6 mps 766 mmHg 65%
    12:00 +19°C° 0.1 mm 6 mps 766 mmHg 65%
    13:00 +19°C° 0.1 mm 6 mps 765 mmHg 64%
    14:00 +17°C° 0.7 mm 6 mps 765 mmHg 70%
    15:00 +16°C° 0.7 mm 6 mps 765 mmHg 75%
    16:00 +16°C° 0.7 mm 7 mps 765 mmHg 80%
    17:00 +15°C° 0.2 mm 6 mps 766 mmHg 83%
    18:00 +14°C° 0.2 mm 6 mps 766 mmHg 85%
    19:00 +13°C° 0.2 mm 6 mps 767 mmHg 87%
    20:00 +13°C° 0.1 mm 6 mps 767 mmHg 88%
    21:00 +13°C° 0.1 mm 6 mps 767 mmHg 89%
    22:00 +13°C° 0.1 mm 5 mps 767 mmHg 91%
    23:00 +13°C° 0.1 mm 5 mps 767 mmHg 92%

    26 June, Wednesday

    Time Temperature Precipitation Wind Pressure Humidity
    00:00 +12°C° 0.1 mm 5 mps 767 mmHg 93%
    01:00 +12°C° 0.1 mm 5 mps 767 mmHg 94%
    02:00 +12°C° 0.2 mm 5 mps 767 mmHg 94%
    03:00 +12°C° 0.2 mm 5 mps 767 mmHg 95%
    04:00 +12°C° 0.2 mm 5 mps 766 mmHg 95%
    05:00 +10°C° 0.1 mm 5 mps 767 mmHg 95%
    06:00 +10°C° 0.1 mm 5 mps 767 mmHg 95%
    07:00 +10°C° 0.1 mm 5 mps 768 mmHg 96%
    08:00 +13°C° 0 mm 5 mps 768 mmHg 87%
    09:00 +15°C° 0 mm 5 mps 768 mmHg 78%
    10:00 +17°C° 0 mm 6 mps 768 mmHg 69%
    11:00 +19°C° 0 mm 6 mps 767 mmHg 66%
    12:00 +19°C° 0 mm 6 mps 767 mmHg 63%
    13:00 +20°C° 0 mm 6 mps 766 mmHg 60%
    14:00 +19°C° 0.1 mm 6 mps 767 mmHg 64%
    15:00 +19°C° 0.1 mm 5 mps 767 mmHg 67%
    16:00 +17°C° 0.1 mm 5 mps 767 mmHg 71%
    17:00 +16°C° 0.2 mm 5 mps 767 mmHg 78%
    18:00 +15°C° 0.2 mm 5 mps 767 mmHg 84%
    19:00 +13°C° 0.2 mm 5 mps 768 mmHg 91%
    20:00 +13°C° 0.3 mm 5 mps 768 mmHg 91%
    21:00 +13°C° 0.3 mm 5 mps 768 mmHg 92%
    22:00 +13°C° 0.3 mm 5 mps 768 mmHg 93%
    23:00 +13°C° 0.2 mm 5 mps 768 mmHg 93%
    Show more